Location: Brompton
(51.4000°N, 0.5333°E)
Time: 23:22:31
(UTC+00:00)

Cosmos 1536 - Visible Passes

Search period start: 27 September 2021 00:00
Search period end: 07 October 2021 00:00
Orbit: 539 x 559 km, 82.5° (Epoch: 27 September)

Date Brightness Start Highest point End Pass type
(mag) Time Alt. Az. Time Alt. Az. Time Alt. Az.
27 Sep 6.1 02:16:29 10° NE 02:17:33 11° ENE 02:18:36 10° ENE visible
27 Sep 2.7 03:50:39 10° N 03:54:39 85° E 03:58:37 10° S visible
28 Sep 6.0 02:11:28 10° NE 02:12:53 12° ENE 02:14:18 10° E visible
28 Sep 2.7 03:45:56 10° N 03:49:56 89° W 03:53:55 10° S visible
29 Sep 5.9 02:06:31 10° NE 02:08:13 12° ENE 02:09:54 10° E visible
29 Sep 2.6 03:41:14 10° NNW 03:45:13 83° W 03:47:19 27° S visible
30 Sep 5.8 02:01:38 10° NNE 02:03:33 13° ENE 02:04:58 11° E visible
30 Sep 2.6 03:36:32 10° NNW 03:40:31 77° W 03:40:33 77° WSW visible
01 Oct 5.8 01:56:45 10° NNE 01:58:52 14° ENE 01:58:52 14° ENE visible
01 Oct 3.6 03:31:49 10° NNW 03:34:28 40° NNW 03:34:28 40° NNW visible
02 Oct 5.9 01:51:54 10° NNE 01:53:07 14° NE 01:53:07 14° NE visible
02 Oct 4.5 03:27:07 10° NNW 03:28:45 23° NNW 03:28:45 23° NNW visible
03 Oct 6.0 01:47:03 10° NNE 01:47:36 12° NNE 01:47:36 12° NNE visible
03 Oct 5.1 03:22:25 10° NNW 03:23:14 16° NNW 03:23:14 16° NNW visible
04 Oct 5.5 03:17:43 10° NNW 03:17:52 11° NNW 03:17:52 11° NNW visible
